Weather History for Jonesboro, AR

Change the Weather History Date:

Wednesday, March 26, 2014

  Actual Average Record
Temperature  
Mean Temperature 41 °F 53 °F  
Max Temperature 55 °F 64 °F 87 °F (1910)
Min Temperature 27 °F 43 °F 14 °F (1955)
Degree Days  
Heating Degree Days 24 12  
Month to date heating degree days 571 409  
Since 1 July heating degree days 3836 3365  
Cooling Degree Days 0 0  
Month to date cooling degree days 0 0  
Year to date cooling degree days 0 0  
Moisture  
Dew Point 21 °F    
Average Humidity 51    
Maximum Humidity 75    
Minimum Humidity 26    
Precipitation  
Precipitation T in 0.15 in 4.00 in (1934)
Month to date precipitation 3.42 3.73  
Year to date precipitation 8.13 10.88  
Snow  
Snow 0.00 in 0.00 in T in (1955)
Month to date snowfall 3.2 0.6  
Since 1 July snowfall 5.2 4.7  
Snow Depth 0.00 in    
Sea Level Pressure  
Sea Level Pressure 30.26 in    
Wind  
Wind Speed 8 mph (SE)    
Max Wind Speed 17 mph    
Max Gust Speed 23 mph    
Visibility 10 miles    
Events      
T = Trace of Precipitation, MM = Missing Value Source: NWS Daily Summary

Daily Weather History Graph

Daily Weather History Graph

Search for Another Location

Airport:

Trip Planner

Search our weather history database for the weather conditions in past years. The results will help you decide how hot, cold, wet, or windy it might be!

Date:

Astronomy

Mar. 26, 2014 Rise Set
Actual Time 6:57 AM CDT 7:19 PM CDT
Civil Twilight 6:31 AM CDT 7:45 PM CDT
Nautical Twilight 6:01 AM CDT 8:15 PM CDT
Astronomical Twilight 5:31 AM CDT 8:45 PM CDT
Moon 3:58 AM CDT (3/26) 3:05 PM CDT (3/26)
Length of Visible Light 13h 13m
Length of Day
12h 21m
Waning Crescent, 21% of the Moon is Illuminated
Mar 26
Waning Crescent
Mar 30
New
Apr 7
First Quarter
Apr 15
Full
Apr 22
Last Quarter

Hourly Weather History & Observations

Time (CDT) Temp. Windchill Dew Point Humidity Pressure Visibility Wind Dir Wind Speed Gust Speed Precip Events Conditions
12:53 AM 37.0 °F 33.3 °F 14.0 °F 39% 30.30 in 10.0 mi North 4.6 mph - N/A   Clear
1:53 AM 35.1 °F 29.3 °F 14.0 °F 42% 30.31 in 10.0 mi North 6.9 mph - N/A   Clear
2:53 AM 33.1 °F 26.9 °F 17.1 °F 52% 30.31 in 10.0 mi NE 6.9 mph - N/A   Clear
3:53 AM 30.9 °F 26.2 °F 18.0 °F 59% 30.32 in 10.0 mi ENE 4.6 mph - N/A   Clear
4:53 AM 28.9 °F 23.9 °F 19.0 °F 67% 30.33 in 10.0 mi ENE 4.6 mph - N/A   Clear
5:53 AM 28.9 °F 25.2 °F 18.0 °F 64% 30.34 in 10.0 mi ENE 3.5 mph - N/A   Clear
6:53 AM 27.0 °F 20.5 °F 19.0 °F 72% 30.34 in 10.0 mi NE 5.8 mph - N/A   Clear
7:53 AM 30.9 °F 26.2 °F 21.0 °F 67% 30.37 in 10.0 mi East 4.6 mph - N/A   Clear
8:53 AM 36.0 °F 28.5 °F 19.9 °F 52% 30.38 in 10.0 mi ESE 10.4 mph - N/A   Clear
9:53 AM 39.9 °F 32.1 °F 18.0 °F 41% 30.38 in 10.0 mi SE 13.8 mph - N/A   Clear
10:53 AM 44.1 °F 38.6 °F 19.0 °F 37% 30.38 in 10.0 mi South 10.4 mph - N/A   Clear
11:53 AM 46.0 °F 41.4 °F 17.1 °F 31% 30.34 in 10.0 mi SE 9.2 mph - N/A   Clear
12:53 PM 48.9 °F - 18.0 °F 29% 30.32 in 10.0 mi SSE 11.5 mph 17.3 mph N/A   Clear
1:53 PM 50.0 °F - 18.0 °F 28% 30.27 in 10.0 mi SSE 10.4 mph 18.4 mph N/A   Clear
2:53 PM 53.1 °F - 19.9 °F 27% 30.24 in 10.0 mi South 15.0 mph 19.6 mph N/A   Clear
3:53 PM 54.0 °F - 21.0 °F 28% 30.21 in 10.0 mi South 9.2 mph 18.4 mph N/A   Clear
4:53 PM 54.0 °F - 21.9 °F 29% 30.16 in 10.0 mi SSE 12.7 mph - N/A   Clear
5:53 PM 54.0 °F - 21.9 °F 29% 30.14 in 10.0 mi South 12.7 mph - N/A   Clear
6:53 PM 52.0 °F - 24.1 °F 34% 30.15 in 10.0 mi South 6.9 mph - N/A   Clear
7:53 PM 50.0 °F - 27.0 °F 41% 30.15 in 10.0 mi SSE 5.8 mph - N/A   Overcast
8:53 PM 50.0 °F - 27.0 °F 41% 30.14 in 10.0 mi South 4.6 mph - N/A   Overcast
9:53 PM 50.0 °F - 27.0 °F 41% 30.15 in 10.0 mi South 4.6 mph - N/A   Overcast
10:53 PM 48.0 °F - 34.0 °F 58% 30.12 in 10.0 mi South 5.8 mph - 0.00 in   Overcast
11:53 PM 48.9 °F - 32.0 °F 52% 30.06 in 10.0 mi SE 10.4 mph - N/A   Mostly Cloudy